TimeCST,TemperatureF,Dew PointF,Humidity,Sea Level PressureIn,VisibilityMPH,Wind Direction,Wind SpeedMPH,Gust SpeedMPH,PrecipitationIn,Events,Conditions,WindDirDegrees,DateUTC
12:16 AM,3.2,-2.2,78,30.24,10.0,Calm,Calm,-,N/A,,Overcast,0,2013-01-01 06:16:00
12:35 AM,3.2,-0.4,85,30.24,10.0,Calm,Calm,-,N/A,,Overcast,0,2013-01-01 06:35:00
12:55 AM,3.2,-0.4,85,30.24,10.0,Calm,Calm,-,N/A,,Overcast,0,2013-01-01 06:55:00
1:15 AM,5.0,-0.4,78,30.23,10.0,Calm,Calm,-,N/A,,Overcast,0,2013-01-01 07:15:00
1:35 AM,5.0,-0.4,78,30.23,10.0,Calm,Calm,-,N/A,,Overcast,0,2013-01-01 07:35:00
1:55 AM,5.0,-0.4,78,30.23,10.0,South,3.5,-,N/A,,Overcast,190,2013-01-01 07:55:00
2:15 AM,5.0,-0.4,78,30.23,10.0,Calm,Calm,-,N/A,,Overcast,0,2013-01-01 08:15:00
2:36 AM,5.0,-0.4,78,30.24,10.0,Calm,Calm,-,N/A,,Overcast,0,2013-01-01 08:36:00
2:55 AM,5.0,-0.4,78,30.24,10.0,Calm,Calm,-,N/A,,Overcast,0,2013-01-01 08:55:00
3:15 AM,6.8,1.4,79,30.24,10.0,Calm,Calm,-,N/A,,Overcast,0,2013-01-01 09:15:00
3:36 AM,6.8,1.4,79,30.24,10.0,SSW,3.5,-,N/A,,Overcast,210,2013-01-01 09:36:00
3:55 AM,8.6,1.4,73,30.24,10.0,SSW,4.6,-,N/A,,Overcast,200,2013-01-01 09:55:00
4:15 AM,8.6,1.4,73,30.24,10.0,SSW,3.5,-,N/A,,Overcast,200,2013-01-01 10:15:00
4:36 AM,8.6,3.2,79,30.23,10.0,SSW,6.9,-,N/A,,Overcast,200,2013-01-01 10:36:00
4:55 AM,8.6,3.2,79,30.23,10.0,South,4.6,-,N/A,,Overcast,190,2013-01-01 10:55:00
5:15 AM,8.6,3.2,79,30.23,10.0,SSW,4.6,-,N/A,,Overcast,200,2013-01-01 11:15:00
5:36 AM,8.6,3.2,79,30.22,10.0,SSW,4.6,-,N/A,,Overcast,200,2013-01-01 11:36:00
6:15 AM,10.4,3.2,73,30.21,10.0,SSW,5.8,-,N/A,,Overcast,210,2013-01-01 12:15:00
6:35 AM,10.4,3.2,73,30.21,10.0,SW,6.9,-,N/A,,Overcast,220,2013-01-01 12:35:00
6:55 AM,10.4,5.0,79,30.21,10.0,SSW,6.9,-,N/A,,Overcast,210,2013-01-01 12:55:00
7:16 AM,10.4,5.0,79,30.20,10.0,SW,5.8,-,N/A,,Overcast,220,2013-01-01 13:16:00
7:35 AM,10.4,5.0,79,30.20,10.0,SSW,4.6,-,N/A,,Overcast,200,2013-01-01 13:35:00
7:55 AM,12.2,5.0,73,30.20,10.0,SSW,4.6,-,N/A,,Overcast,210,2013-01-01 13:55:00
8:16 AM,12.2,6.8,79,30.21,10.0,SSW,3.5,-,N/A,,Overcast,200,2013-01-01 14:16:00
8:35 AM,12.2,6.8,79,30.21,10.0,South,3.5,-,N/A,,Overcast,190,2013-01-01 14:35:00
8:55 AM,12.2,6.8,79,30.21,10.0,South,3.5,-,N/A,,Overcast,190,2013-01-01 14:55:00
9:15 AM,12.2,6.8,79,30.21,10.0,South,4.6,-,N/A,,Overcast,170,2013-01-01 15:15:00
9:35 AM,12.2,6.8,79,30.21,10.0,South,4.6,-,N/A,,Overcast,170,2013-01-01 15:35:00
9:56 AM,12.2,6.8,79,30.21,10.0,SSE,4.6,-,N/A,,Overcast,160,2013-01-01 15:56:00
10:15 AM,12.2,8.6,85,30.21,10.0,SSE,3.5,-,N/A,,Overcast,160,2013-01-01 16:15:00
10:35 AM,14.0,8.6,79,30.21,10.0,South,3.5,-,N/A,,Overcast,170,2013-01-01 16:35:00
10:56 AM,14.0,8.6,79,30.21,10.0,South,4.6,-,N/A,,Overcast,170,2013-01-01 16:56:00
11:15 AM,14.0,8.6,79,30.20,10.0,South,9.2,-,N/A,,Overcast,180,2013-01-01 17:15:00
11:35 AM,14.0,8.6,79,30.19,10.0,South,8.1,-,N/A,,Overcast,180,2013-01-01 17:35:00
11:56 AM,15.8,10.4,79,30.19,10.0,South,8.1,-,N/A,,Overcast,190,2013-01-01 17:56:00
12:15 PM,15.8,10.4,79,30.18,10.0,SSW,10.4,-,N/A,,Overcast,200,2013-01-01 18:15:00
12:35 PM,17.6,12.2,79,30.18,5.0,SSW,11.5,-,N/A,,Haze,210,2013-01-01 18:35:00
12:55 PM,17.6,14.0,86,30.16,4.0,SSW,11.5,-,N/A,,Overcast,210,2013-01-01 18:55:00
1:15 PM,17.6,14.0,86,30.15,2.5,SSW,13.8,-,N/A,,Overcast,210,2013-01-01 19:15:00
1:35 PM,19.4,15.8,86,30.14,1.8,SSW,13.8,-,N/A,,Overcast,210,2013-01-01 19:35:00
1:55 PM,19.4,15.8,86,30.14,2.0,SSW,15.0,-,N/A,,Overcast,210,2013-01-01 19:55:00
2:16 PM,19.4,17.6,93,30.13,2.5,SSW,13.8,-,N/A,,Overcast,210,2013-01-01 20:16:00
2:35 PM,19.4,17.6,93,30.13,3.0,SSW,12.7,-,N/A,,Overcast,210,2013-01-01 20:35:00
2:55 PM,19.4,17.6,93,30.12,4.0,SSW,11.5,-,N/A,,Overcast,200,2013-01-01 20:55:00
3:15 PM,21.2,17.6,86,30.11,7.0,SSW,11.5,-,N/A,,Overcast,200,2013-01-01 21:15:00
3:36 PM,21.2,17.6,86,30.11,7.0,SSW,10.4,-,N/A,,Overcast,200,2013-01-01 21:36:00
3:55 PM,21.2,17.6,86,30.11,7.0,SSW,11.5,-,N/A,,Overcast,210,2013-01-01 21:55:00
4:15 PM,21.2,17.6,86,30.11,7.0,SW,12.7,-,N/A,,Overcast,220,2013-01-01 22:15:00
4:36 PM,21.2,17.6,86,30.11,7.0,WSW,13.8,-,N/A,,Overcast,240,2013-01-01 22:36:00
4:56 PM,21.2,17.6,86,30.11,7.0,WSW,11.5,-,N/A,,Overcast,240,2013-01-01 22:56:00
5:15 PM,21.2,17.6,86,30.10,7.0,SW,12.7,-,N/A,,Overcast,230,2013-01-01 23:15:00
5:36 PM,21.2,17.6,86,30.09,7.0,SW,10.4,-,N/A,,Overcast,230,2013-01-01 23:36:00
5:56 PM,21.2,17.6,86,30.08,7.0,SW,11.5,-,N/A,,Overcast,220,2013-01-01 23:56:00
6:15 PM,21.2,17.6,86,30.08,7.0,SSW,11.5,-,N/A,,Overcast,210,2013-01-02 00:15:00
6:36 PM,21.2,17.6,86,30.07,7.0,SSW,10.4,-,N/A,,Overcast,210,2013-01-02 00:36:00
6:56 PM,21.2,17.6,86,30.07,5.0,SSW,11.5,-,N/A,,Overcast,200,2013-01-02 00:56:00
7:15 PM,21.2,17.6,86,30.07,5.0,SSW,10.4,-,N/A,,Overcast,200,2013-01-02 01:15:00
7:35 PM,21.2,19.4,93,30.06,5.0,SSW,10.4,-,N/A,,Overcast,200,2013-01-02 01:35:00
7:55 PM,21.2,17.6,86,30.05,5.0,South,10.4,-,N/A,,Overcast,190,2013-01-02 01:55:00
8:15 PM,21.2,17.6,86,30.05,4.0,SSW,10.4,-,N/A,,Overcast,210,2013-01-02 02:15:00
8:36 PM,21.2,19.4,93,30.05,4.0,SSW,11.5,-,N/A,,Overcast,200,2013-01-02 02:36:00
8:55 PM,21.2,19.4,93,30.04,3.0,SSW,10.4,-,N/A,,Overcast,210,2013-01-02 02:55:00
9:16 PM,21.2,17.6,86,30.03,3.0,SSW,10.4,-,N/A,,Overcast,200,2013-01-02 03:16:00
9:35 PM,19.4,17.6,93,30.03,1.5,SSW,10.4,-,N/A,,Overcast,210,2013-01-02 03:35:00
9:55 PM,19.4,17.6,93,30.02,1.2,SSW,9.2,-,N/A,,Overcast,200,2013-01-02 03:55:00
10:16 PM,19.4,17.6,93,30.02,0.8,SSW,10.4,-,N/A,,Overcast,200,2013-01-02 04:16:00
10:35 PM,19.4,17.6,93,30.02,1.2,SSW,9.2,-,N/A,,Overcast,200,2013-01-02 04:35:00
10:55 PM,19.4,15.8,86,30.01,3.0,SSW,8.1,-,N/A,,Overcast,200,2013-01-02 04:55:00
11:16 PM,17.6,14.0,86,30.01,1.0,SSW,10.4,-,N/A,,Overcast,200,2013-01-02 05:16:00
11:35 PM,17.6,14.0,86,30.01,0.8,South,8.1,-,N/A,,Overcast,190,2013-01-02 05:35:00
11:55 PM,17.6,14.0,86,30.00,0.5,SSW,6.9,-,N/A,Fog,Light Freezing Fog,200,2013-01-02 05:55:00